Wind_Speed
27 28 30 30 30 27 24 23 16 10 10 11 14 15 13 9 8 10 11 11 14 18 21 20 22 28 31 34 37 36 34 33 28 23 19 16 16 16 16 19 20 18 17 16 16 15 15 15 14 13 14 15 16 15 13 12 11 10 10 11 10 9 8 8 7 6 5 5 5 5 6 7 8 10 11 11 11 12 12 13 14 14 13 13 14 14
28 30 34 32 29 26 23 23 18 14 11 9 10 12 12 13 11 10 11 12 14 17 20 20 21 28 31 34 38 37 36 36 31 26 22 18 16 14 14 17 17 16 16 16 15 13 13 14 13 14 15 16 16 15 13 12 11 10 10 11 10 9 9 9 9 8 7 7 7 6 7 7 7 9 11 11 11 12 12 12 13 14 14 13 13 14
28 31 33 30 28 26 24 23 21 17 13 9 8 7 10 15 14 11 12 14 14 14 18 20 21 26 31 34 37 37 36 38 35 30 26 21 17 15 13 14 14 16 18 18 16 15 13 13 13 14 16 16 16 15 13 12 11 11 10 10 10 10 10 10 10 9 8 8 7 7 7 7 7 8 9 11 11 11 11 12 12 13 14 13 13 13
28 28 26 26 28 28 25 24 22 19 15 12 10 9 11 14 14 14 15 15 16 15 15 19 19 21 27 33 37 36 33 36 34 31 29 24 20 18 15 14 13 16 20 20 19 17 15 13 13 14 16 16 16 15 15 13 12 11 10 10 10 10 10 10 10 10 9 8 7 7 7 7 7 7 8 9 10 10 11 11 11 12 12 13 13 13
27 21 17 21 26 29 28 26 24 20 18 16 14 14 13 14 16 17 17 16 18 16 14 16 17 19 24 30 36 36 32 33 33 31 31 28 25 22 19 18 14 14 19 20 20 19 16 14 13 14 16 17 16 15 15 14 12 11 10 10 10 9 9 10 11 10 9 7 6 5 4 5 5 6 7 7 8 9 9 10 11 11 11 12 12 12
26 18 16 19 22 27 30 28 26 23 20 17 17 17 14 15 17 19 18 17 19 18 16 16 14 16 23 26 31 35 34 34 34 31 31 31 30 27 24 22 18 16 18 19 19 18 17 14 12 14 17 17 15 14 15 14 13 12 11 11 11 11 10 11 11 10 9 7 6 5 4 3 4 5 7 8 8 8 8 9 10 11 11 11 12 12
24 18 19 20 19 24 28 30 30 25 20 19 17 14 13 17 19 22 21 19 20 16 14 17 12 9 19 24 27 33 35 36 35 32 32 33 32 30 27 24 21 20 20 20 20 18 17 14 13 15 17 16 15 14 14 15 15 14 13 12 11 11 12 13 13 11 10 9 8 7 7 6 7 7 8 8 8 8 8 9 10 10 11 11 11 12
23 19 20 20 20 21 25 32 32 26 22 17 12 8 11 17 20 23 23 19 17 12 12 19 14 6 14 21 25 31 37 38 36 34 32 34 34 33 31 28 23 22 22 22 21 19 18 15 13 14 15 14 14 14 14 14 15 15 14 13 13 12 12 14 14 13 12 12 11 11 10 9 9 8 8 8 8 7 7 8 9 10 11 10 11 11
19 19 19 18 20 21 28 36 32 28 25 16 10 9 14 16 19 24 24 18 15 14 16 20 14 5 8 16 21 29 38 41 38 37 35 34 36 35 32 29 26 25 24 23 21 19 18 16 13 12 12 11 12 13 14 14 15 15 14 14 14 13 12 13 15 14 13 13 12 12 11 10 9 8 9 9 8 8 7 7 8 9 10 10 10 10
16 17 16 16 19 23 30 34 29 28 26 18 13 13 15 17 23 25 23 19 14 13 17 22 16 5 4 13 19 24 37 43 41 39 37 35 36 36 34 31 28 28 27 24 22 20 18 15 12 11 11 10 10 11 13 14 15 15 15 14 14 14 13 13 15 14 13 12 11 11 11 10 10 8 8 9 9 8 7 7 8 8 8 9 9 10
18 17 16 17 20 22 23 24 26 27 25 19 15 12 11 17 25 24 20 18 11 7 14 21 18 7 2 10 19 23 31 41 42 40 38 38 38 37 35 32 30 29 29 26 23 21 20 16 12 12 11 9 8 10 13 16 16 16 16 15 15 15 14 14 15 15 14 13 11 10 10 10 10 9 8 8 8 8 7 8 8 8 9 9 9 9
20 18 18 19 19 19 17 18 23 23 22 18 16 15 17 17 18 15 12 11 5 3 8 17 19 11 2 5 14 22 25 32 41 40 37 38 39 38 37 34 32 31 30 29 25 23 22 20 16 13 12 10 9 10 13 17 17 17 17 16 15 15 15 15 16 16 15 14 12 11 10 10 10 10 9 8 7 7 7 8 8 8 9 9 9 9
21 20 18 17 18 19 17 18 21 21 21 20 18 21 17 8 5 5 3 4 5 2 1 11 19 12 5 6 10 18 21 24 36 40 38 38 38 38 38 35 33 33 33 30 28 26 23 21 18 15 12 12 11 10 11 16 18 18 17 17 16 15 15 15 16 17 16 15 13 12 11 11 11 11 10 9 9 9 9 8 8 8 8 9 8 8
16 18 19 19 18 20 20 20 22 20 21 23 24 25 18 7 1 1 1 3 4 2 2 9 17 7 5 7 8 16 19 19 29 38 41 42 39 37 36 36 35 35 34 32 30 28 25 21 18 15 13 12 13 11 10 13 17 18 18 17 16 15 16 16 16 16 16 15 14 13 13 12 12 12 11 10 10 10 10 8 7 8 8 9 9 9
9 11 18 22 18 18 22 22 21 17 18 24 25 23 24 20 9 4 7 5 3 4 5 12 13 3 4 6 8 16 17 15 24 32 36 39 40 38 36 36 37 37 36 34 33 31 27 23 21 18 15 13 13 12 10 11 15 18 18 18 17 16 16 16 16 16 15 15 14 13 14 14 13 13 12 12 11 11 10 9 8 7 8 9 9 10
8 9 15 21 16 16 21 21 19 16 15 22 24 23 27 27 18 11 12 12 11 10 7 10 7 3 7 7 8 15 15 14 21 26 30 33 38 40 37 37 38 39 38 37 35 33 30 26 23 22 18 15 15 13 11 11 14 17 19 18 18 17 16 16 16 16 15 15 14 13 14 14 14 14 13 12 11 10 10 10 9 8 8 8 8 9
7 9 13 18 16 15 20 20 18 17 16 21 25 26 22 19 17 12 9 11 13 9 3 5 3 3 7 7 9 14 15 16 19 22 27 31 35 37 38 39 39 40 40 38 37 36 32 28 25 23 20 18 17 14 13 12 13 17 19 18 19 18 18 17 17 16 16 15 14 13 14 14 14 14 13 12 11 11 11 10 10 9 8 8 7 7
9 10 11 16 17 16 18 19 18 18 17 19 22 21 16 11 12 11 8 7 6 4 1 3 3 7 9 6 10 14 14 17 18 19 24 29 32 36 37 39 41 41 42 41 40 38 34 31 28 25 22 20 19 16 14 13 13 17 19 19 19 19 19 18 17 17 16 16 15 13 13 13 14 14 13 13 12 12 12 11 10 10 8 8 7 7
10 11 10 15 18 16 18 19 16 15 17 18 18 18 14 9 9 11 8 5 4 3 2 2 1 10 14 10 12 14 14 16 17 17 21 24 29 32 34 37 42 44 43 43 41 38 36 33 31 29 24 21 20 19 17 14 15 19 20 19 19 19 18 18 18 17 17 16 16 14 14 13 14 14 14 14 13 13 12 11 11 10 9 9 8 8
10 10 8 13 17 16 18 20 17 16 15 14 16 19 15 8 8 12 8 7 8 4 2 2 1 8 17 15 14 15 14 14 15 16 18 22 26 28 28 32 41 47 46 44 42 38 37 35 33 31 27 24 22 21 19 16 17 21 20 19 19 19 19 20 19 18 17 17 17 16 15 14 14 14 14 15 14 14 13 12 12 12 11 11 10 10
11 11 8 12 17 17 19 21 18 17 16 16 16 17 16 11 10 11 6 6 11 6 4 4 1 8 19 18 15 15 14 14 15 14 15 18 20 23 26 29 37 45 45 44 43 39 38 36 33 32 30 27 24 22 21 18 18 21 22 20 19 19 20 20 20 20 18 18 18 17 16 15 15 15 15 15 15 15 15 14 13 13 13 12 11 11
9 11 10 14 18 17 17 19 17 14 14 16 16 14 16 15 11 10 5 3 9 9 9 9 2 7 19 19 15 14 13 12 13 14 15 13 12 17 23 27 32 39 43 43 42 40 39 36 33 32 31 29 26 24 22 20 19 21 24 23 21 20 20 20 20 20 19 19 18 17 17 16 16 16 16 16 16 16 16 15 14 14 14 13 12 12
7 9 11 14 16 15 14 14 14 13 12 14 14 10 14 14 11 11 7 5 8 9 12 13 5 6 19 19 16 16 13 12 12 14 14 12 11 12 17 23 28 34 40 43 43 41 39 37 34 32 32 31 29 27 25 22 21 22 23 23 22 20 20 20 20 20 20 20 19 18 18 18 18 17 17 17 17 17 17 17 16 16 15 14 13 13
4 6 9 12 13 12 12 12 13 11 10 13 11 9 12 12 10 11 9 10 12 11 13 11 4 7 20 20 18 17 14 13 13 13 12 11 12 12 14 19 25 30 36 41 43 43 40 38 35 33 34 33 31 30 27 24 22 23 23 23 22 21 20 21 21 21 21 20 20 20 20 20 19 19 19 19 18 17 17 18 18 18 17 16 15 14
2 4 8 9 9 8 7 9 10 9 8 11 12 11 11 9 9 10 10 11 13 14 17 12 5 12 24 23 20 19 16 15 13 12 13 12 12 13 14 16 20 25 31 34 38 41 41 40 38 36 36 35 33 33 31 28 25 25 24 24 23 22 21 22 22 22 22 21 20 21 21 21 21 21 21 20 20 19 19 19 20 20 19 18 17 16
5 4 5 6 6 6 4 5 8 10 9 10 13 14 12 9 8 8 11 15 13 14 19 16 12 20 27 25 23 22 19 18 14 12 12 12 13 15 14 13 14 18 22 25 28 31 35 38 38 38 38 37 36 36 34 32 30 28 27 27 26 25 24 23 23 23 22 20 20 21 22 22 22 22 22 22 21 21 20 21 22 22 22 21 20 18
10 11 9 9 11 10 7 8 10 11 11 12 13 13 11 11 9 7 10 16 16 16 19 17 17 27 31 27 25 24 20 16 15 13 9 9 14 16 16 15 14 13 14 17 20 23 27 30 32 35 38 39 40 39 36 33 31 31 33 32 31 30 29 27 25 24 23 21 21 22 23 23 23 23 22 22 22 22 21 22 22 23 24 23 22 21
13 16 16 16 18 17 13 11 12 12 13 13 12 11 11 10 10 9 9 12 15 16 15 17 21 27 31 30 28 25 20 16 14 11 7 6 10 14 17 17 17 15 13 13 17 21 23 25 28 31 34 36 37 36 34 31 30 32 36 36 33 31 29 28 27 25 24 23 23 24 24 24 24 23 23 23 23 22 22 22 22 23 24 24 25 24
12 15 14 14 17 18 18 14 14 15 14 15 13 11 12 10 10 11 10 10 15 14 12 18 24 25 29 32 29 22 17 15 12 9 6 6 7 10 14 18 19 18 15 14 18 22 24 24 23 23 24 26 28 28 28 28 28 31 35 35 33 29 25 25 26 26 24 23 23 24 25 25 25 25 25 25 23 22 22 22 22 22 23 25 26 25
12 13 13 13 15 17 18 17 15 17 17 16 16 16 14 11 10 12 11 12 15 11 10 19 27 27 28 30 26 20 16 13 13 11 9 8 8 8 9 12 17 20 18 16 17 21 23 23 21 19 19 20 21 21 21 22 25 28 30 31 30 26 22 22 25 25 22 21 22 23 25 25 25 25 26 27 26 23 23 22 22 22 23 24 25 25
15 11 11 12 13 15 15 16 15 17 20 18 16 16 13 12 13 14 15 16 15 10 12 22 29 29 27 26 23 21 18 17 17 16 12 8 8 7 6 7 11 15 18 18 16 16 17 16 17 17 17 19 19 19 20 21 21 22 23 24 25 24 21 21 23 22 21 21 22 23 23 24 23 23 25 28 28 26 25 24 24 23 23 23 24 25
16 14 7 9 13 12 11 13 15 17 22 20 18 16 13 13 16 15 15 15 12 13 21 26 28 28 28 27 25 23 20 19 17 14 10 8 8 8 8 8 7 8 12 16 16 16 14 11 10 10 10 12 14 15 17 18 18 19 20 20 20 19 17 17 19 20 20 22 23 23 23 23 24 24 26 28 29 28 27 26 25 24 24 24 24 25
13 19 10 4 9 11 9 9 12 16 16 13 13 13 12 13 15 13 12 9 6 11 19 21 23 27 28 29 29 26 22 17 13 8 7 8 9 9 8 10 10 10 11 12 14 16 16 16 14 12 9 8 10 11 11 12 15 18 18 16 15 15 14 14 16 18 19 22 23 23 24 25 25 26 27 28 28 28 28 28 27 26 26 25 25 25
8 17 15 2 4 8 7 8 10 9 6 4 7 11 11 11 12 11 11 10 9 11 12 13 19 26 29 30 29 27 21 15 10 8 7 7 7 7 8 10 11 12 11 11 12 13 15 17 17 15 14 13 13 12 10 9 10 12 13 14 13 12 14 15 17 18 19 20 22 23 25 26 27 28 29 29 30 29 29 30 29 27 27 27 26 26
7 13 17 9 0 3 6 7 5 2 1 3 7 10 11 11 10 11 12 12 14 14 10 14 22 26 28 29 26 22 18 14 12 10 9 8 6 5 7 8 9 9 9 9 10 11 12 13 13 13 13 14 15 14 12 11 10 10 12 15 16 16 17 19 20 21 20 19 20 21 23 25 28 28 29 29 30 29 30 31 31 30 29 29 28 28
7 10 16 14 6 2 1 2 4 5 5 6 8 10 13 13 10 11 15 16 17 14 10 16 25 27 26 26 24 19 16 15 14 12 10 9 7 6 5 5 5 6 6 6 7 8 9 9 10 10 10 11 12 12 11 9 9 9 11 14 16 18 19 20 21 20 18 18 18 19 20 22 25 27 27 28 28 29 29 30 30 30 29 30 30 30
7 9 15 15 8 5 2 6 10 11 8 8 12 13 13 15 11 7 12 19 19 16 12 16 24 27 26 24 22 19 18 17 16 14 12 10 8 7 6 4 3 2 4 5 6 7 8 9 9 9 9 10 10 10 10 10 8 8 9 10 11 12 13 15 15 15 14 15 17 18 19 21 23 25 27 28 28 27 27 27 27 27 28 29 30 32
6 9 14 15 9 6 9 12 9 5 5 9 15 13 11 15 12 4 7 17 21 18 14 14 20 23 23 23 24 22 21 20 18 16 14 12 10 8 7 5 3 2 3 5 7 8 8 8 8 8 8 9 9 9 9 8 8 7 7 7 7 7 7 8 8 9 10 11 13 16 18 20 22 24 26 27 25 23 24 25 25 26 27 28 28 29
6 8 12 14 11 11 14 12 5 3 6 10 14 13 10 14 13 4 5 15 21 19 16 15 18 20 20 22 25 25 24 22 19 17 15 13 11 9 7 7 7 5 5 6 8 10 10 10 10 10 9 9 9 9 9 8 8 7 6 6 6 5 5 5 5 6 6 7 8 9 11 13 15 18 21 22 21 21 23 24 25 26 27 28 28 28
7 8 10 12 13 14 15 13 6 6 9 11 12 13 12 14 13 7 6 14 20 21 19 17 18 20 21 22 24 25 23 21 17 16 15 14 12 10 9 9 9 9 9 9 9 10 11 11 11 11 11 11 10 10 10 10 10 10 9 8 8 7 6 6 6 6 7 7 7 8 9 10 11 13 15 16 16 18 20 22 24 26 27 28 28 29
7 8 9 10 11 12 13 12 8 8 12 14 12 12 14 15 14 10 7 10 17 22 21 17 16 18 20 21 22 22 21 19 17 17 18 16 13 11 10 9 8 9 9 11 12 13 14 14 13 13 13 13 13 13 13 12 13 13 13 13 12 11 10 10 10 10 10 10 10 10 11 11 12 12 13 13 13 14 16 18 21 24 26 27 28 30
7 7 7 8 8 8 9 10 7 7 14 16 13 14 17 15 11 10 7 6 13 20 20 16 15 16 16 17 19 21 21 21 20 20 19 17 14 12 11 10 9 8 8 10 11 12 13 14 15 15 15 15 15 15 15 15 15 15 15 16 16 15 15 14 14 14 13 13 13 13 14 14 15 15 15 15 15 14 15 15 17 19 22 24 26 28
6 6 6 5 5 5 6 7 5 6 12 16 14 14 16 11 7 7 6 6 10 17 18 16 16 15 15 16 18 20 21 21 21 21 20 18 15 13 13 12 11 9 7 8 10 10 12 13 15 17 18 18 18 17 17 17 18 18 19 19 19 19 19 19 19 19 18 17 17 16 17 18 18 18 18 17 17 17 17 17 17 18 19 21 23 24
3 4 5 4 4 4 4 4 3 5 11 15 14 13 13 11 8 6 5 5 8 13 16 18 18 18 16 16 17 20 21 21 21 22 21 19 16 13 13 13 13 12 11 11 13 15 16 18 19 20 22 22 22 21 20 20 21 21 22 23 23 23 24 24 24 23 23 23 22 21 21 21 22 23 22 21 20 20 20 20 20 20 20 20 21 23
2 2 3 2 2 3 3 2 3 5 8 12 13 11 11 11 10 8 4 4 6 10 14 18 19 19 18 16 17 19 20 20 20 22 22 19 15 13 13 13 13 14 15 16 17 19 20 20 20 21 22 24 24 24 24 23 23 24 24 24 25 25 25 26 26 27 27 27 26 26 26 26 26 27 27 26 25 25 24 24 23 23 23 23 23 23
2 3 3 3 3 2 3 3 4 6 7 10 11 11 10 10 10 9 6 4 6 8 12 16 19 19 17 16 16 17 18 19 20 21 21 18 16 15 15 15 15 16 17 18 19 20 19 19 19 19 20 21 22 23 23 23 23 24 25 25 25 25 24 24 25 26 27 28 29 29 29 30 30 30 31 31 30 30 30 29 28 28 28 27 27 27
4 4 5 4 4 4 3 4 4 6 8 10 10 10 10 9 9 9 8 7 7 10 14 18 20 18 17 16 15 16 17 19 19 19 19 17 17 17 16 16 17 18 19 20 20 20 20 21 22 22 22 22 23 23 23 23 23 24 24 25 25 24 23 23 23 23 24 25 27 28 29 30 31 32 32 33 33 33 34 34 33 33 33 32 32 31
6 6 5 5 6 6 6 6 6 6 8 10 11 10 10 9 9 9 9 9 10 12 16 18 18 17 17 17 17 17 18 19 19 19 18 17 17 17 17 18 20 21 22 22 22 23 23 25 25 25 25 25 25 25 25 25 25 25 26 26 25 25 25 25 24 24 24 24 25 26 27 28 29 30 31 32 33 34 35 36 36 36 37 38 37 36
8 7 7 7 7 7 7 8 9 9 10 11 12 12 12 13 12 12 12 13 14 15 16 16 17 17 17 18 18 19 20 20 20 19 19 18 18 18 20 21 23 24 25 26 26 27 27 26 26 26 25 25 25 25 25 25 25 25 25 25 24 24 25 25 25 25 25 25 25 25 26 27 27 28 29 29 30 31 33 34 35 37 38 40 41 40
10 8 8 8 8 8 8 9 10 10 12 12 13 14 14 15 15 15 16 17 17 18 18 17 17 17 18 18 19 20 20 20 20 19 19 19 20 21 23 25 27 28 28 29 28 28 27 27 25 25 24 24 24 24 24 24 24 23 23 22 21 21 22 22 23 23 24 24 24 25 26 26 27 27 27 27 27 27 28 30 32 33 35 36 38 40
12 11 10 9 9 9 9 10 11 12 13 13 14 15 15 15 16 16 17 18 19 20 21 20 19 19 19 20 21 21 21 21 20 20 21 22 23 26 28 30 30 30 30 29 29 28 27 26 25 23 22 22 23 23 23 23 22 22 21 20 20 20 20 20 21 21 22 23 23 24 25 25 26 26 27 26 26 25 26 26 28 29 30 31 33 35
Wind_Direction
197 202 203 201 194 187 187 190 187 176 182 200 216 225 226 223 214 203 203 203 193 189 193 197 198 192 188 188 187 184 184 184 184 181 179 184 184 182 183 187 195 188 177 173 162 161 168 165 167 178 179 171 165 165 167 164 164 168 168 168 169 170 170 169 172 174 169 159 145 140 142 139 136 137 139 148 158 160 157 156 156 157 158 156 154 152
200 207 207 202 194 188 189 190 185 176 170 177 210 230 236 233 223 206 208 206 193 192 195 199 202 195 189 188 185 183 185 186 187 187 184 185 187 184 180 188 193 184 182 182 175 178 183 177 177 183 185 180 171 168 169 163 160 168 171 167 167 168 167 168 172 177 174 166 157 153 153 152 146 140 141 149 157 161 160 157 156 157 159 159 157 156
205 212 210 204 199 196 194 193 193 194 190 181 200 231 239 233 223 203 206 207 196 197 200 200 205 199 193 190 184 183 188 189 189 191 190 188 192 193 186 189 189 182 188 193 189 193 196 189 187 189 187 182 176 171 171 166 162 171 175 167 166 169 171 173 176 180 178 173 169 164 164 164 158 148 146 151 155 158 162 161 158 158 159 161 162 160
207 212 210 208 206 202 199 198 200 204 201 194 205 229 239 240 234 211 199 199 198 202 205 202 203 200 200 197 189 186 190 190 191 193 193 194 198 201 197 196 198 193 194 196 196 200 203 200 196 192 188 184 181 175 173 171 169 175 174 167 168 171 175 178 181 186 185 181 177 172 171 169 161 158 157 155 154 155 160 162 161 162 162 163 165 165
209 204 198 204 207 208 206 203 205 209 203 201 213 228 239 246 243 224 204 194 193 200 208 201 196 198 205 206 196 191 190 190 194 195 194 197 200 203 203 200 204 210 205 201 201 204 206 207 204 196 188 186 185 178 173 173 175 178 175 170 171 172 178 185 189 193 192 185 178 171 172 170 161 161 161 158 154 151 157 163 163 166 167 167 168 169
212 199 188 192 199 209 212 207 206 209 207 211 219 225 240 252 244 227 211 192 185 199 212 194 187 200 207 210 204 196 191 190 195 198 196 198 201 202 203 201 202 210 215 213 209 209 210 213 215 201 188 185 185 180 174 173 175 178 176 174 172 170 178 190 194 194 189 183 177 164 160 166 172 172 165 161 157 152 156 163 167 170 173 171 170 173
211 193 189 190 192 205 214 211 206 207 214 223 224 223 240 247 237 222 208 192 185 199 208 187 184 203 202 207 209 203 197 193 195 198 196 196 199 201 202 202 203 206 213 218 217 218 218 221 221 202 185 180 182 182 179 175 176 178 176 176 175 172 178 188 192 191 185 178 173 170 169 172 180 180 171 167 163 156 156 163 169 173 175 175 173 175
207 188 188 191 193 202 212 210 205 205 215 223 218 226 249 242 234 221 208 198 192 184 177 184 193 202 194 202 209 208 204 197 196 199 195 193 196 198 201 203 202 205 212 217 218 221 221 228 228 204 183 174 179 187 187 181 179 179 176 175 176 175 180 186 187 188 184 177 174 175 175 177 180 179 176 174 167 161 163 165 169 173 175 176 176 177
201 192 191 191 196 204 208 207 205 207 216 223 225 257 275 254 230 212 201 197 191 170 167 183 194 191 188 201 208 209 206 200 198 200 196 193 194 197 201 203 201 203 211 217 220 221 222 230 232 205 182 173 180 190 192 188 186 185 179 176 177 177 180 184 184 185 185 182 180 177 176 176 177 180 181 178 172 169 172 172 171 174 176 177 178 178
203 201 201 203 208 206 203 205 208 211 219 233 251 272 276 247 215 198 192 189 181 174 182 188 187 178 187 202 204 203 204 202 200 200 198 194 194 197 200 202 202 204 210 216 220 221 223 231 231 208 192 184 186 193 196 194 193 193 188 180 178 178 179 182 183 186 189 189 187 182 179 176 174 179 182 179 176 177 179 181 180 179 180 181 181 181
209 208 217 220 216 205 201 206 206 208 219 235 258 258 223 201 193 187 188 183 172 193 203 194 189 186 206 210 205 201 204 204 200 199 201 198 195 196 200 202 203 206 211 215 218 219 220 229 233 218 205 199 199 201 200 199 198 198 195 187 180 179 179 179 181 186 190 193 194 190 186 181 177 178 179 180 181 181 184 186 185 185 186 185 185 186
213 214 221 219 210 202 202 201 196 203 219 233 248 221 175 163 170 170 174 181 190 244 207 197 195 195 224 222 208 205 207 205 200 200 204 203 199 198 200 204 205 206 210 214 216 216 217 223 228 224 213 211 215 209 201 201 202 201 199 192 185 181 178 176 178 184 189 192 196 197 195 190 183 179 177 179 182 183 188 191 185 186 189 187 186 187
225 222 219 208 203 206 211 207 199 206 218 221 218 192 161 127 147 139 121 208 235 250 212 204 197 197 235 242 218 209 208 206 201 202 205 205 204 205 206 206 205 206 210 214 217 217 216 217 220 221 217 216 217 208 201 205 206 205 203 197 189 184 181 178 177 182 187 189 194 198 199 196 189 184 181 181 184 184 189 192 186 184 186 185 183 182
233 228 219 211 210 211 214 214 208 211 215 209 202 186 165 132 84 131 176 245 243 245 313 205 193 192 233 239 231 203 201 205 203 206 208 204 203 207 210 207 205 207 210 214 217 218 218 215 214 218 220 219 215 206 203 210 212 210 206 201 195 189 186 183 179 181 184 186 190 194 196 197 193 189 187 186 186 184 185 189 189 185 184 183 182 182
236 233 218 213 217 216 213 214 214 220 218 210 210 203 184 174 168 177 198 204 148 113 126 169 180 214 222 223 221 193 193 202 203 207 210 206 204 204 205 207 207 208 212 215 217 219 220 216 213 216 220 220 212 206 206 213 218 215 209 205 201 195 191 188 183 181 182 184 188 191 191 193 193 191 191 192 191 186 184 187 190 191 187 184 186 185
245 250 222 211 212 215 213 212 214 216 203 195 199 199 191 188 187 185 194 189 148 112 117 159 174 235 212 216 210 189 192 197 199 205 207 206 206 203 203 208 209 209 211 215 216 219 221 219 214 213 216 217 211 208 213 219 222 219 212 207 203 201 198 195 189 183 182 185 187 189 189 189 192 192 191 195 196 192 191 190 188 193 192 187 191 191
248 243 221 211 210 211 212 211 211 209 187 172 180 187 189 194 196 183 167 160 142 114 118 173 168 184 190 212 206 193 199 197 195 202 203 205 206 204 207 211 211 209 210 213 216 217 220 220 217 213 211 210 208 210 216 221 225 222 217 209 205 205 203 200 197 190 186 188 188 189 190 189 191 192 191 195 198 197 198 196 191 193 195 190 191 196
256 243 213 200 202 203 205 205 209 213 200 178 178 182 174 171 183 174 136 121 121 87 136 176 178 175 175 203 209 202 205 201 199 203 205 207 209 209 211 213 213 209 207 211 215 217 219 220 219 216 212 206 205 212 218 219 219 219 219 212 206 207 207 205 203 198 194 193 192 192 191 191 192 194 194 195 198 200 199 199 196 195 198 196 195 197
251 249 215 191 195 193 192 195 194 197 204 200 190 183 173 163 170 164 147 142 130 82 128 170 187 189 191 205 209 207 206 201 203 208 207 210 213 215 215 216 213 207 206 211 214 215 218 221 221 218 214 208 205 209 216 217 212 210 214 213 208 208 209 210 209 205 202 199 198 197 195 194 195 196 199 199 200 200 198 200 200 199 200 202 202 202
232 235 215 190 192 188 188 194 185 168 176 194 194 189 189 185 161 153 145 158 159 131 149 175 283 211 207 212 212 208 208 203 204 208 210 212 215 215 215 215 211 206 206 211 213 215 217 220 223 221 218 215 209 207 210 212 207 204 206 208 207 208 207 209 210 209 207 205 203 203 201 200 199 199 203 204 204 202 199 200 201 201 204 204 204 205
220 221 202 171 178 185 189 194 193 178 168 174 181 186 190 182 154 144 128 145 160 145 127 149 274 218 206 212 214 208 209 208 205 209 215 217 216 216 217 214 207 204 206 209 212 214 216 219 222 222 222 221 216 211 209 211 208 204 205 205 205 208 207 207 209 210 210 210 209 209 208 208 206 205 207 209 208 206 204 203 200 201 204 205 205 206
205 205 179 159 169 184 188 188 192 191 183 181 181 180 184 184 166 146 119 128 162 162 166 167 166 203 199 204 205 204 210 208 206 213 219 218 212 215 220 217 209 204 205 208 212 214 215 218 222 223 225 225 223 218 213 213 211 205 205 206 205 208 207 206 208 210 211 214 214 214 214 215 215 215 214 215 214 212 210 209 205 205 205 204 206 207
178 182 169 161 167 176 178 176 180 187 190 188 186 186 188 192 183 169 170 174 162 160 171 165 129 182 192 191 192 200 206 201 202 211 218 220 214 213 218 217 215 211 207 207 211 214 215 217 221 224 226 227 227 223 217 215 214 209 207 208 207 208 208 207 208 209 211 214 217 218 219 220 221 222 222 221 220 218 216 214 212 211 209 208 209 209
168 178 165 153 155 160 163 166 168 178 192 189 183 187 194 198 195 189 200 194 171 160 162 151 98 184 184 181 190 200 198 192 196 200 204 210 213 216 217 215 215 216 214 211 210 212 215 217 220 223 227 230 230 227 222 217 215 214 211 210 210 210 211 211 209 210 211 212 215 219 223 224 224 226 227 226 225 223 221 219 218 216 213 212 213 212
132 163 163 143 130 131 150 167 168 171 180 180 180 185 187 189 183 183 196 190 176 175 175 161 132 178 180 180 190 197 195 190 191 197 200 201 205 215 219 214 212 214 216 216 214 213 215 218 219 221 227 232 232 229 227 223 221 221 218 217 215 213 214 215 213 213 213 213 214 217 220 224 226 227 228 230 229 227 225 222 220 218 217 216 215 215
82 101 172 172 153 142 150 162 166 170 160 154 173 188 190 188 185 184 186 182 179 184 184 174 156 167 178 186 192 195 196 193 192 199 205 207 209 215 215 212 213 213 212 215 217 217 219 222 223 225 229 231 231 231 230 228 228 226 225 224 221 216 214 216 217 218 218 219 223 224 220 220 224 226 227 229 230 230 229 227 224 221 218 217 217 217
97 94 99 110 117 121 136 149 158 175 170 151 159 175 180 184 195 200 190 188 189 184 183 187 178 170 174 184 192 194 195 197 200 202 208 215 216 218 219 215 213 213 210 213 216 215 218 224 227 229 232 232 232 233 233 234 236 236 233 230 226 221 215 213 214 217 220 223 230 235 231 224 224 225 224 226 228 229 231 232 232 229 224 220 218 218
111 102 94 89 91 94 106 134 154 168 171 161 154 155 162 175 191 195 192 196 195 183 182 193 190 179 177 182 189 191 191 194 196 193 199 217 218 219 221 221 218 214 205 203 212 214 215 218 223 227 229 229 230 232 234 239 243 244 242 239 235 230 224 219 216 216 220 226 231 239 240 233 228 227 226 226 225 226 228 231 234 236 234 230 225 221
116 104 101 88 86 95 100 115 147 163 162 159 153 149 158 171 186 194 200 201 193 194 204 195 187 187 188 185 185 185 186 191 189 183 194 210 216 221 222 223 223 221 210 196 198 206 208 208 212 219 222 220 222 226 232 237 238 239 245 247 244 239 237 235 232 224 222 227 234 240 244 242 236 232 230 229 226 224 226 228 231 235 239 239 235 231
135 111 111 100 88 95 98 101 131 159 162 155 150 151 157 161 168 181 188 184 180 195 216 188 179 184 189 184 180 179 184 196 197 201 216 217 212 223 230 227 224 221 219 210 196 195 203 204 201 206 210 208 212 217 221 227 229 232 240 246 247 246 245 243 242 236 228 227 231 236 240 242 239 233 229 230 229 226 225 227 229 231 235 239 240 239
162 133 110 114 105 95 95 95 109 146 161 154 143 145 152 153 154 157 161 165 167 173 183 178 175 177 178 178 180 184 192 201 201 206 219 216 204 209 214 225 231 227 225 224 209 193 198 203 197 197 198 194 198 204 205 209 219 226 231 235 239 243 243 241 240 238 232 228 228 230 232 233 233 232 231 231 230 228 226 227 229 229 231 233 236 239
171 170 126 106 116 107 100 99 101 126 142 138 128 128 135 147 151 149 153 161 169 169 169 174 178 177 175 179 184 189 194 198 198 206 218 203 176 176 189 201 216 218 217 224 224 212 208 211 206 203 195 184 192 204 202 201 210 217 219 222 227 230 233 239 240 238 235 231 227 226 227 227 229 232 232 229 226 225 227 228 228 229 230 230 232 235
162 180 181 88 109 117 104 111 121 121 119 114 115 121 127 142 148 149 154 162 179 177 172 176 181 181 181 183 186 190 190 185 179 185 209 202 176 163 177 193 197 198 201 213 222 219 217 220 221 222 220 207 206 212 207 199 200 202 205 212 222 227 232 241 246 245 241 235 231 229 228 229 232 233 232 228 225 226 228 228 228 229 230 230 230 232
166 179 186 172 91 122 126 134 137 125 104 88 110 123 128 138 149 150 148 155 175 182 182 183 181 182 184 186 190 192 184 168 162 166 171 181 179 172 180 192 201 208 211 212 216 217 217 220 223 226 228 228 226 228 231 223 210 203 201 203 210 223 231 237 244 245 242 236 232 230 231 233 235 234 232 229 228 228 228 229 230 231 234 236 235 232
179 176 182 191 192 119 148 152 135 99 104 122 124 133 136 136 147 145 135 149 173 176 180 186 182 184 189 189 192 192 180 168 175 182 174 164 159 168 185 194 202 207 209 210 214 216 214 215 220 223 222 221 223 229 236 236 228 218 209 203 204 211 219 227 234 236 235 233 231 228 230 234 237 237 235 233 233 232 232 232 232 234 237 241 240 235
168 165 173 183 214 267 192 146 129 127 128 130 139 150 150 149 154 146 141 158 176 178 186 192 185 186 191 191 191 192 186 183 186 190 191 185 170 162 176 188 197 202 204 202 201 202 197 191 192 194 193 195 200 204 207 211 213 209 204 205 208 211 215 222 230 232 230 231 232 230 227 228 233 239 241 239 238 237 236 235 235 235 237 241 242 239
168 171 170 174 196 235 175 118 126 133 129 140 154 159 162 164 167 154 151 165 177 181 193 201 191 188 192 193 192 194 196 196 194 193 198 201 195 188 188 192 195 203 210 207 200 197 193 186 182 179 176 178 180 179 180 183 186 189 192 197 204 208 211 216 223 228 227 226 229 232 230 227 230 236 240 241 240 240 241 242 240 238 238 240 243 243
167 175 180 179 180 177 152 131 125 137 142 151 159 163 170 172 171 165 161 173 181 184 192 207 201 192 194 196 195 198 202 203 202 202 203 207 209 208 210 218 226 232 232 224 215 208 201 195 194 190 187 189 186 180 179 182 186 190 193 198 202 204 205 207 212 218 220 221 224 229 232 233 233 235 240 244 245 246 248 247 244 240 239 240 242 244
167 157 177 181 164 153 155 146 135 181 171 159 160 161 166 174 175 178 177 181 185 187 192 207 207 198 199 203 202 204 208 209 211 212 212 214 218 223 234 245 249 257 264 255 236 224 217 210 205 202 201 204 202 196 192 192 198 207 214 219 223 222 223 225 224 226 231 234 236 237 240 243 244 245 248 251 251 249 248 247 244 241 240 240 241 244
165 142 157 167 156 153 160 158 157 185 181 174 169 161 158 170 178 185 193 189 189 187 189 201 209 208 208 211 212 213 215 218 226 233 231 227 227 232 242 250 255 259 265 266 255 241 231 224 218 213 210 212 215 215 211 207 207 213 221 228 235 241 246 248 248 249 253 256 261 264 265 264 263 262 261 261 257 251 248 247 247 245 244 244 244 245
152 140 137 141 143 151 163 162 163 182 181 176 171 161 156 164 177 187 198 199 194 189 187 196 213 220 220 221 224 226 224 225 235 245 247 248 252 254 249 245 252 259 262 263 260 250 242 236 232 227 222 220 222 224 226 224 220 219 220 224 229 234 241 248 253 256 259 261 264 267 269 270 271 271 271 271 268 262 256 253 251 251 250 250 251 251
141 147 139 129 127 137 156 159 154 171 179 175 168 164 164 171 188 202 207 208 195 188 186 193 207 218 223 224 229 234 232 227 230 238 247 256 264 267 263 260 262 261 255 255 257 256 250 244 240 238 236 234 233 235 238 240 240 237 233 231 232 232 235 240 246 249 253 257 261 264 267 269 269 270 273 274 274 271 267 263 260 258 257 257 258 258
119 140 151 151 138 130 145 153 145 162 179 178 174 175 179 186 208 221 222 210 190 187 189 193 197 206 214 217 224 232 233 231 232 238 244 246 247 252 261 266 266 263 256 255 261 266 266 261 255 251 247 244 243 245 248 250 253 254 252 249 247 244 242 242 244 245 248 251 254 259 262 265 266 266 267 269 272 273 272 271 269 266 265 265 265 265
94 118 140 155 160 148 143 149 151 166 178 182 184 190 198 206 215 224 221 197 189 195 198 196 196 203 213 218 224 229 230 231 235 239 241 239 242 253 262 264 264 265 264 265 271 277 279 276 270 263 257 253 251 251 253 255 257 258 259 259 257 255 253 251 250 249 249 249 250 253 255 259 263 264 263 263 265 267 269 271 271 271 270 269 269 269
136 140 149 160 181 175 159 153 157 165 181 192 198 203 210 217 224 233 236 204 202 210 208 205 204 207 210 215 220 225 229 232 236 239 240 240 247 257 262 264 268 270 269 271 276 280 282 282 278 271 265 262 261 260 260 260 261 261 260 260 259 257 257 256 255 255 254 253 252 251 252 254 257 261 263 263 263 264 265 266 268 269 269 269 269 269
169 190 211 237 247 222 194 174 158 157 176 200 215 223 227 227 229 237 241 222 212 215 214 213 214 214 217 221 223 226 231 234 238 240 241 244 250 255 261 268 271 271 271 274 276 279 282 284 283 279 274 270 268 267 267 266 264 263 261 260 258 257 256 255 255 255 255 256 255 254 254 254 255 257 260 262 263 264 265 265 266 267 268 269 269 269
210 230 237 250 256 237 208 192 180 171 178 193 211 229 238 237 232 231 231 222 213 210 210 213 216 219 226 234 238 238 236 237 240 241 241 246 250 253 259 267 270 271 273 273 274 276 278 280 281 280 278 276 274 272 270 269 266 264 262 261 260 259 258 256 255 254 254 255 256 256 255 255 255 256 257 259 260 261 263 264 265 266 267 267 267 267
224 239 242 248 254 247 234 231 229 209 196 198 205 215 227 233 232 227 221 219 216 211 210 214 218 222 228 235 239 238 236 237 239 240 241 246 250 253 258 264 268 271 272 272 273 274 274 275 276 276 276 276 275 274 273 271 268 266 264 264 263 263 263 261 259 258 256 255 256 257 258 257 257 257 257 258 259 259 260 262 263 264 266 266 266 267
228 237 238 241 251 253 246 244 241 226 215 217 221 222 223 224 226 226 223 221 221 221 221 221 223 224 227 232 234 233 233 235 239 241 243 246 250 255 261 265 268 269 270 271 272 272 272 272 273 273 273 273 272 271 270 268 267 266 265 264 264 263 263 262 262 261 260 259 259 259 259 260 260 259 259 259 259 260 261 262 262 263 264 265 267 268
226 229 232 236 247 256 255 254 249 238 232 235 237 237 236 233 231 230 227 224 225 229 232 232 231 231 232 233 234 236 238 241 244 245 246 248 252 259 263 265 267 268 268 269 269 269 270 272 273 273 272 270 268 266 265 264 264 264 264 263 261 260 260 261 261 261 261 261 261 261 262 262 262 262 262 262 262 262 263 264 264 264 264 266 267 268
228 228 231 234 237 244 248 251 251 247 244 243 243 243 244 244 242 238 235 232 231 232 233 235 236 239 242 243 244 245 246 248 249 249 249 251 255 258 260 262 264 264 264 263 263 264 266 269 272 273 270 266 265 264 262 262 262 262 262 261 260 259 259 259 259 260 261 261 261 262 263 264 264 265 265 265 265 264 263 263 264 265 266 266 267 268
Height
3140 3141 3141 3142 3144 3146 3148 3151 3153 3154 3155 3156 3157 3157 3158 3159 3160 3161 3162 3163 3164 3166 3168 3169 3171 3171 3172 3174 3175 3177 3180 3182 3184 3186 3187 3189 3190 3191 3193 3194 3195 3197 3199 3201 3202 3204 3206 3208 3210 3211 3212 3214 3216 3217 3219 3220 3221 3223 3224 3225 3225 3225 3226 3226 3227 3227 3228 3228 3229 3230 3230 3231 3232 3233 3234 3235 3236 3236 3237 3238 3239 3240 3241 3241 3242 3243
3139 3139 3139 3142 3146 3148 3149 3151 3153 3154 3155 3156 3156 3157 3158 3159 3160 3161 3162 3163 3164 3166 3168 3169 3170 3171 3173 3175 3177 3179 3180 3181 3183 3185 3187 3189 3190 3191 3193 3194 3195 3197 3199 3200 3202 3204 3206 3208 3210 3211 3212 3214 3216 3217 3219 3220 3221 3223 3224 3225 3226 3227 3227 3227 3228 3229 3229 3229 3229 3230 3231 3232 3233 3234 3235 3235 3236 3237 3238 3239 3239 3240 3241 3242 3243 3243
3137 3137 3139 3143 3147 3148 3149 3150 3152 3153 3154 3155 3156 3156 3157 3158 3159 3161 3162 3163 3164 3165 3166 3167 3169 3171 3173 3175 3178 3180 3179 3179 3181 3183 3186 3188 3189 3191 3193 3194 3195 3197 3198 3200 3201 3203 3205 3207 3209 3210 3212 3214 3216 3217 3219 3220 3221 3222 3224 3225 3226 3227 3228 3228 3229 3229 3230 3230 3230 3230 3231 3232 3233 3234 3235 3236 3237 3237 3238 3239 3240 3241 3242 3243 3243 3244
3135 3136 3140 3143 3146 3147 3148 3149 3150 3152 3153 3154 3155 3156 3156 3157 3158 3159 3160 3162 3164 3165 3165 3167 3169 3171 3172 3174 3177 3179 3180 3180 3181 3182 3185 3188 3189 3191 3193 3194 3195 3196 3198 3199 3201 3203 3205 3207 3208 3210 3212 3214 3216 3217 3218 3219 3221 3222 3224 3225 3226 3227 3228 3229 3229 3229 3230 3230 3231 3231 3232 3233 3233 3234 3236 3237 3237 3238 3239 3239 3240 3241 3242 3243 3244 3245
3133 3137 3140 3142 3144 3145 3147 3148 3149 3151 3152 3153 3154 3154 3155 3156 3157 3158 3159 3161 3163 3164 3165 3167 3170 3171 3171 3173 3176 3179 3179 3179 3180 3181 3183 3186 3189 3191 3192 3194 3195 3197 3198 3199 3201 3203 3204 3206 3208 3210 3212 3214 3215 3217 3219 3220 3221 3223 3224 3225 3226 3227 3228 3229 3229 3230 3230 3231 3231 3232 3233 3233 3234 3235 3236 3237 3238 3239 3239 3240 3241 3242 3243 3244 3244 3245
3134 3137 3139 3139 3141 3143 3145 3146 3148 3150 3151 3152 3153 3153 3154 3155 3156 3158 3159 3160 3162 3164 3164 3166 3169 3169 3169 3172 3174 3176 3177 3177 3179 3181 3183 3185 3188 3190 3191 3193 3195 3197 3198 3199 3201 3202 3204 3206 3208 3210 3211 3213 3215 3217 3219 3220 3222 3223 3224 3225 3226 3227 3228 3229 3230 3231 3231 3232 3232 3233 3234 3234 3235 3236 3237 3238 3238 3239 3240 3240 3241 3242 3243 3244 3245 3246
3133 3136 3137 3138 3140 3141 3143 3145 3147 3149 3151 3151 3151 3153 3154 3154 3155 3157 3158 3159 3161 3162 3162 3165 3166 3166 3168 3170 3172 3174 3175 3176 3178 3180 3182 3184 3186 3189 3191 3192 3195 3196 3197 3199 3201 3202 3204 3206 3208 3210 3211 3213 3215 3217 3219 3220 3221 3223 3224 3225 3226 3227 3228 3229 3230 3231 3232 3233 3234 3235 3235 3236 3236 3237 3237 3238 3238 3239 3240 3241 3242 3243 3244 3245 3246 3246
3132 3136 3136 3137 3138 3139 3140 3142 3145 3148 3150 3150 3150 3152 3153 3153 3153 3155 3157 3159 3160 3160 3162 3164 3165 3165 3166 3168 3169 3171 3173 3174 3176 3178 3181 3183 3185 3188 3190 3192 3194 3196 3197 3198 3200 3201 3203 3205 3207 3209 3211 3213 3215 3217 3219 3220 3221 3223 3224 3225 3226 3227 3228 3229 3230 3232 3233 3235 3235 3236 3237 3237 3237 3237 3238 3238 3239 3240 3241 3242 3243 3243 3244 3245 3246 3247
3132 3135 3136 3137 3137 3137 3137 3140 3145 3148 3148 3148 3150 3152 3151 3151 3153 3155 3157 3159 3159 3160 3161 3162 3163 3164 3165 3165 3166 3168 3170 3172 3174 3176 3179 3182 3184 3187 3189 3191 3193 3195 3196 3197 3199 3201 3203 3205 3207 3210 3211 3213 3215 3216 3218 3220 3221 3222 3224 3225 3226 3226 3228 3229 3230 3232 3233 3234 3235 3236 3237 3237 3238 3238 3239 3239 3240 3241 3241 3242 3243 3244 3244 3245 3246 3247
3132 3134 3136 3137 3136 3136 3137 3140 3144 3147 3147 3148 3150 3150 3150 3151 3153 3155 3157 3159 3160 3159 3159 3160 3161 3162 3163 3163 3163 3165 3166 3168 3171 3175 3178 3181 3183 3185 3188 3190 3192 3194 3195 3197 3199 3200 3203 3205 3207 3210 3211 3212 3214 3216 3218 3219 3220 3222 3223 3225 3225 3226 3227 3228 3230 3231 3233 3234 3235 3236 3237 3237 3238 3239 3240 3241 3241 3242 3242 3243 3243 3244 3245 3246 3246 3247
3130 3132 3134 3134 3134 3136 3138 3141 3143 3145 3147 3149 3149 3149 3150 3152 3153 3156 3158 3159 3160 3159 3157 3158 3160 3161 3162 3161 3161 3162 3163 3165 3170 3173 3176 3179 3182 3184 3186 3189 3191 3193 3194 3196 3198 3200 3202 3205 3207 3209 3210 3212 3214 3215 3217 3218 3220 3221 3222 3224 3225 3226 3227 3228 3229 3231 3232 3233 3234 3236 3237 3238 3238 3240 3241 3242 3242 3243 3244 3244 3244 3245 3246 3246 3247 3248
3128 3130 3131 3132 3133 3135 3138 3140 3142 3145 3147 3148 3148 3148 3150 3153 3154 3156 3158 3160 3160 3157 3156 3157 3159 3161 3161 3161 3162 3163 3163 3166 3169 3172 3174 3178 3180 3183 3185 3188 3190 3191 3193 3195 3197 3199 3202 3204 3206 3208 3210 3211 3213 3215 3216 3217 3219 3220 3222 3223 3225 3226 3227 3228 3229 3230 3232 3233 3234 3235 3237 3238 3238 3240 3241 3242 3243 3244 3244 3245 3245 3246 3246 3247 3247 3248
3127 3128 3130 3131 3132 3134 3136 3138 3140 3143 3145 3146 3146 3146 3149 3155 3158 3159 3161 3163 3159 3156 3156 3157 3159 3161 3161 3160 3161 3163 3164 3166 3168 3171 3173 3176 3180 3182 3184 3186 3188 3190 3191 3193 3196 3198 3200 3202 3205 3207 3209 3210 3212 3214 3216 3217 3218 3219 3221 3222 3224 3225 3227 3228 3229 3230 3232 3233 3234 3235 3236 3237 3238 3239 3240 3241 3243 3244 3244 3245 3246 3247 3247 3248 3248 3249
3127 3127 3128 3129 3131 3132 3134 3135 3137 3140 3141 3143 3144 3144 3148 3155 3161 3163 3163 3162 3158 3155 3155 3156 3158 3160 3160 3160 3161 3162 3163 3165 3167 3169 3171 3174 3178 3181 3183 3185 3187 3188 3190 3192 3194 3196 3199 3201 3203 3206 3208 3210 3212 3213 3215 3216 3217 3219 3220 3221 3223 3224 3226 3227 3228 3230 3231 3232 3234 3235 3236 3237 3238 3239 3240 3241 3242 3243 3244 3245 3246 3247 3247 3248 3248 3249
3127 3127 3126 3127 3129 3130 3131 3133 3135 3138 3140 3141 3142 3143 3145 3149 3155 3158 3158 3156 3155 3155 3155 3157 3159 3160 3160 3159 3160 3161 3163 3164 3165 3167 3170 3173 3177 3179 3181 3183 3185 3187 3189 3191 3193 3195 3197 3200 3202 3204 3207 3209 3211 3212 3214 3215 3217 3218 3219 3220 3222 3223 3225 3226 3227 3229 3230 3231 3233 3234 3235 3237 3238 3239 3240 3241 3242 3243 3244 3245 3246 3246 3247 3247 3248 3249
3125 3125 3125 3126 3127 3129 3131 3132 3135 3137 3138 3139 3141 3143 3144 3145 3147 3149 3150 3151 3151 3153 3157 3158 3159 3159 3159 3160 3160 3161 3163 3164 3165 3166 3169 3172 3175 3177 3179 3181 3183 3186 3188 3190 3192 3194 3196 3199 3201 3203 3205 3208 3210 3211 3213 3214 3216 3217 3218 3219 3221 3222 3224 3225 3227 3228 3229 3231 3232 3233 3235 3236 3237 3239 3239 3240 3242 3243 3243 3244 3245 3246 3247 3247 3248 3249
3124 3123 3124 3125 3126 3128 3130 3132 3134 3135 3136 3138 3140 3141 3142 3144 3145 3146 3148 3150 3149 3154 3158 3159 3159 3159 3160 3160 3160 3161 3162 3163 3164 3166 3168 3170 3172 3174 3176 3179 3182 3184 3187 3189 3191 3192 3195 3197 3200 3202 3204 3206 3208 3210 3212 3214 3215 3216 3217 3219 3220 3221 3223 3224 3226 3227 3228 3230 3231 3233 3234 3235 3237 3238 3239 3240 3241 3242 3243 3244 3245 3246 3246 3247 3248 3249
3124 3123 3123 3125 3125 3127 3128 3131 3132 3133 3134 3136 3137 3139 3140 3142 3143 3143 3147 3150 3151 3156 3160 3159 3159 3159 3159 3160 3160 3160 3161 3163 3164 3166 3167 3169 3170 3172 3174 3177 3180 3183 3186 3187 3188 3190 3193 3196 3198 3200 3203 3205 3207 3209 3211 3213 3214 3215 3216 3218 3219 3221 3223 3224 3225 3226 3228 3229 3231 3232 3233 3235 3236 3238 3239 3240 3241 3242 3243 3244 3244 3245 3246 3247 3248 3248
3124 3123 3123 3124 3125 3126 3127 3129 3130 3131 3132 3134 3135 3137 3138 3140 3141 3141 3145 3148 3152 3158 3161 3160 3160 3159 3159 3159 3159 3160 3161 3162 3164 3165 3166 3168 3169 3170 3173 3176 3178 3182 3184 3185 3186 3189 3192 3194 3196 3199 3202 3204 3205 3207 3210 3212 3214 3214 3216 3217 3219 3220 3222 3224 3225 3226 3227 3229 3230 3232 3233 3234 3235 3237 3238 3239 3240 3241 3242 3243 3244 3245 3246 3247 3248 3248
3123 3122 3122 3123 3124 3125 3126 3127 3128 3128 3130 3132 3134 3136 3137 3138 3139 3140 3143 3144 3148 3156 3159 3160 3161 3159 3157 3158 3159 3160 3161 3162 3163 3165 3166 3166 3167 3169 3172 3173 3176 3179 3182 3183 3186 3189 3191 3193 3195 3198 3201 3203 3204 3206 3208 3211 3213 3214 3215 3216 3218 3219 3221 3222 3224 3226 3227 3228 3230 3231 3232 3233 3235 3236 3237 3238 3239 3240 3242 3242 3243 3244 3245 3246 3247 3248
3122 3121 3121 3122 3123 3125 3125 3126 3127 3128 3129 3130 3132 3134 3135 3137 3138 3139 3142 3143 3145 3150 3155 3159 3161 3158 3156 3157 3159 3160 3161 3162 3164 3165 3166 3166 3167 3169 3170 3171 3174 3177 3180 3182 3185 3187 3189 3192 3195 3197 3200 3202 3204 3205 3207 3210 3212 3213 3214 3215 3217 3218 3219 3221 3223 3224 3226 3227 3229 3230 3232 3233 3234 3235 3236 3237 3238 3240 3241 3241 3242 3244 3245 3246 3247 3247
3120 3120 3120 3121 3122 3123 3124 3125 3127 3128 3129 3130 3131 3132 3134 3135 3136 3138 3142 3143 3144 3146 3150 3153 3156 3155 3155 3157 3159 3160 3161 3162 3164 3165 3165 3167 3169 3169 3168 3170 3173 3175 3178 3181 3184 3186 3188 3190 3193 3196 3198 3200 3202 3204 3206 3208 3211 3212 3214 3214 3215 3217 3218 3220 3221 3223 3225 3226 3228 3230 3232 3233 3234 3235 3236 3236 3237 3238 3240 3241 3241 3242 3243 3245 3246 3247
3119 3119 3120 3120 3121 3122 3123 3125 3126 3127 3129 3129 3130 3132 3133 3134 3135 3136 3139 3142 3144 3146 3147 3149 3152 3154 3155 3157 3159 3160 3161 3162 3163 3164 3165 3167 3169 3169 3169 3169 3171 3173 3175 3178 3181 3184 3186 3189 3191 3193 3195 3197 3200 3202 3204 3206 3209 3211 3213 3214 3214 3215 3216 3218 3219 3221 3223 3225 3227 3229 3230 3232 3233 3234 3235 3236 3237 3238 3239 3240 3240 3241 3242 3243 3244 3245
3119 3119 3119 3119 3120 3121 3123 3124 3125 3126 3128 3129 3129 3131 3132 3133 3134 3135 3138 3140 3142 3145 3146 3148 3152 3154 3155 3157 3159 3159 3161 3162 3163 3164 3165 3167 3168 3169 3168 3169 3169 3171 3172 3174 3178 3182 3185 3187 3190 3192 3193 3195 3198 3201 3203 3205 3207 3209 3211 3212 3213 3214 3215 3217 3218 3219 3221 3223 3225 3227 3229 3230 3232 3233 3234 3235 3236 3237 3238 3239 3239 3240 3241 3242 3243 3244
3118 3118 3118 3119 3120 3122 3123 3123 3124 3126 3127 3127 3128 3130 3131 3132 3133 3135 3137 3139 3141 3144 3144 3146 3150 3152 3153 3156 3157 3158 3160 3162 3163 3164 3165 3167 3168 3168 3168 3168 3169 3171 3173 3175 3178 3182 3185 3186 3188 3190 3192 3194 3196 3199 3201 3203 3205 3207 3209 3211 3212 3213 3214 3215 3216 3218 3219 3221 3222 3224 3225 3227 3229 3231 3232 3234 3235 3236 3237 3237 3238 3239 3239 3240 3241 3242
3118 3118 3118 3118 3119 3121 3122 3122 3123 3125 3126 3126 3127 3128 3130 3131 3132 3134 3136 3138 3139 3142 3143 3144 3146 3149 3152 3155 3156 3157 3159 3161 3162 3163 3165 3166 3167 3168 3169 3170 3170 3171 3173 3176 3179 3183 3186 3186 3187 3189 3190 3192 3194 3196 3198 3200 3202 3204 3206 3207 3208 3210 3212 3213 3215 3216 3218 3220 3221 3222 3222 3223 3225 3227 3229 3232 3234 3235 3236 3236 3237 3237 3238 3238 3240 3241
3118 3118 3118 3118 3118 3120 3121 3121 3122 3124 3126 3126 3126 3128 3129 3131 3132 3133 3135 3136 3137 3140 3142 3142 3143 3146 3150 3153 3154 3156 3158 3160 3162 3163 3164 3166 3166 3167 3168 3170 3170 3171 3173 3176 3179 3183 3185 3185 3186 3187 3188 3191 3193 3194 3196 3199 3202 3203 3202 3202 3204 3206 3207 3209 3211 3214 3215 3218 3220 3221 3221 3222 3222 3224 3226 3229 3231 3233 3234 3235 3236 3237 3237 3237 3237 3238
3119 3119 3120 3120 3120 3120 3121 3121 3122 3124 3125 3126 3127 3128 3129 3131 3132 3133 3134 3135 3136 3138 3140 3141 3142 3144 3148 3151 3153 3155 3157 3160 3162 3163 3164 3165 3165 3166 3167 3168 3170 3172 3174 3177 3178 3180 3182 3183 3184 3184 3186 3189 3192 3194 3196 3198 3200 3200 3199 3199 3202 3204 3206 3207 3208 3210 3212 3214 3217 3218 3220 3221 3221 3222 3224 3226 3228 3230 3232 3233 3234 3236 3237 3237 3237 3237
3120 3121 3122 3122 3121 3120 3121 3122 3122 3124 3125 3127 3127 3128 3129 3130 3131 3132 3134 3134 3135 3136 3137 3139 3142 3144 3146 3148 3152 3155 3158 3160 3162 3164 3164 3164 3165 3165 3166 3167 3169 3171 3174 3177 3177 3178 3180 3180 3182 3183 3185 3188 3191 3193 3195 3196 3197 3197 3196 3197 3198 3201 3205 3207 3207 3208 3208 3210 3213 3215 3218 3219 3220 3220 3222 3224 3226 3227 3229 3231 3232 3233 3235 3236 3237 3237
3121 3122 3122 3123 3122 3121 3122 3123 3123 3124 3125 3127 3128 3128 3129 3130 3131 3132 3133 3134 3135 3136 3137 3138 3142 3145 3147 3149 3153 3156 3158 3160 3162 3163 3164 3164 3164 3165 3166 3166 3168 3170 3173 3175 3177 3179 3179 3180 3182 3184 3185 3188 3190 3192 3193 3194 3194 3195 3195 3195 3195 3198 3202 3204 3205 3206 3206 3207 3210 3212 3215 3217 3218 3218 3220 3222 3224 3225 3226 3228 3229 3230 3232 3234 3235 3236
3121 3123 3123 3124 3123 3123 3123 3124 3125 3124 3125 3126 3128 3128 3129 3130 3131 3132 3133 3134 3135 3136 3138 3139 3142 3146 3149 3152 3154 3156 3157 3159 3161 3162 3164 3165 3165 3166 3166 3167 3167 3169 3172 3174 3176 3178 3179 3180 3182 3184 3186 3188 3190 3191 3191 3191 3192 3193 3194 3195 3196 3198 3201 3202 3204 3205 3205 3206 3208 3210 3212 3214 3215 3216 3218 3220 3221 3222 3223 3224 3225 3226 3228 3230 3232 3233
3122 3124 3125 3125 3125 3125 3125 3126 3127 3126 3125 3126 3128 3129 3130 3131 3132 3133 3134 3135 3136 3136 3138 3140 3142 3145 3148 3150 3152 3154 3157 3159 3161 3163 3164 3164 3165 3166 3167 3168 3168 3169 3171 3173 3175 3177 3177 3178 3179 3181 3184 3186 3187 3188 3189 3190 3191 3192 3194 3195 3196 3197 3199 3200 3200 3202 3203 3204 3205 3207 3209 3211 3212 3214 3215 3217 3218 3219 3220 3221 3221 3222 3224 3226 3228 3230
3123 3124 3126 3127 3126 3126 3127 3127 3128 3128 3128 3129 3130 3130 3131 3132 3133 3134 3135 3136 3137 3137 3138 3139 3141 3143 3145 3147 3150 3152 3156 3159 3162 3164 3164 3164 3165 3166 3167 3168 3169 3170 3172 3173 3174 3176 3177 3178 3179 3180 3182 3184 3185 3186 3187 3188 3189 3189 3191 3194 3195 3196 3197 3197 3198 3199 3200 3202 3204 3206 3208 3209 3210 3211 3212 3214 3215 3216 3217 3218 3218 3219 3220 3221 3223 3225
3123 3124 3126 3128 3127 3127 3128 3128 3129 3130 3131 3132 3132 3132 3133 3134 3134 3134 3135 3136 3138 3139 3139 3140 3142 3144 3145 3147 3149 3152 3156 3159 3162 3163 3164 3165 3166 3166 3167 3168 3169 3171 3172 3173 3174 3175 3177 3177 3179 3180 3182 3183 3184 3185 3185 3186 3186 3187 3189 3191 3193 3194 3196 3196 3197 3198 3199 3201 3203 3204 3206 3207 3208 3209 3209 3210 3210 3211 3213 3214 3216 3217 3217 3218 3220 3222
3123 3124 3125 3128 3128 3128 3128 3128 3130 3133 3133 3133 3133 3133 3133 3134 3135 3135 3136 3137 3139 3140 3141 3142 3143 3145 3146 3148 3151 3154 3157 3159 3160 3162 3163 3165 3166 3167 3168 3168 3169 3170 3172 3174 3175 3175 3176 3177 3178 3179 3181 3182 3183 3184 3185 3185 3186 3187 3188 3189 3191 3193 3194 3195 3195 3196 3199 3201 3202 3204 3205 3205 3206 3207 3207 3208 3208 3209 3210 3211 3212 3214 3215 3217 3218 3219
3123 3124 3125 3128 3130 3130 3129 3129 3131 3133 3133 3132 3133 3133 3134 3135 3136 3136 3137 3138 3140 3141 3143 3144 3144 3146 3148 3150 3152 3155 3157 3158 3159 3161 3163 3164 3166 3167 3168 3169 3170 3171 3173 3174 3175 3176 3177 3177 3178 3178 3179 3181 3182 3183 3184 3185 3186 3186 3187 3188 3190 3191 3192 3193 3194 3196 3199 3200 3201 3202 3204 3204 3204 3205 3207 3208 3208 3208 3209 3209 3209 3210 3212 3214 3216 3217
3123 3124 3124 3127 3131 3131 3130 3130 3131 3133 3133 3133 3133 3133 3134 3135 3136 3137 3138 3139 3141 3142 3144 3145 3145 3147 3148 3150 3153 3154 3156 3157 3159 3160 3162 3164 3166 3167 3168 3170 3171 3172 3173 3175 3176 3177 3177 3177 3178 3178 3179 3180 3181 3183 3184 3185 3185 3185 3186 3187 3188 3189 3190 3191 3192 3194 3197 3198 3199 3200 3201 3201 3202 3203 3205 3205 3206 3207 3208 3208 3208 3208 3208 3210 3213 3214
3123 3124 3124 3126 3130 3131 3131 3131 3132 3133 3133 3133 3133 3134 3135 3136 3137 3138 3139 3140 3141 3143 3145 3146 3147 3148 3149 3151 3152 3154 3155 3156 3158 3159 3161 3163 3165 3167 3169 3171 3172 3173 3174 3175 3176 3178 3178 3178 3178 3178 3179 3180 3181 3182 3183 3184 3185 3185 3185 3186 3187 3188 3189 3190 3191 3192 3194 3196 3197 3197 3198 3199 3200 3201 3201 3202 3204 3206 3206 3206 3206 3206 3207 3208 3210 3212
3123 3124 3125 3127 3129 3130 3131 3131 3132 3132 3132 3132 3133 3134 3135 3136 3138 3139 3139 3140 3141 3143 3146 3147 3148 3149 3150 3150 3152 3153 3154 3156 3157 3159 3161 3163 3165 3168 3169 3171 3172 3173 3174 3175 3176 3177 3178 3179 3179 3179 3179 3180 3181 3182 3183 3184 3185 3185 3186 3186 3186 3187 3188 3189 3190 3191 3192 3193 3194 3195 3195 3196 3197 3197 3198 3199 3202 3203 3203 3203 3204 3204 3205 3206 3207 3208
3124 3125 3125 3127 3128 3129 3130 3131 3132 3131 3131 3132 3133 3134 3135 3137 3139 3140 3140 3141 3141 3143 3146 3147 3148 3149 3150 3151 3152 3153 3155 3157 3159 3161 3163 3164 3166 3168 3169 3170 3171 3172 3173 3174 3175 3176 3177 3178 3179 3179 3180 3180 3181 3182 3183 3184 3185 3185 3186 3186 3187 3188 3188 3189 3190 3191 3191 3192 3192 3193 3193 3194 3194 3195 3196 3197 3199 3200 3200 3201 3201 3202 3202 3203 3204 3205
3124 3125 3126 3127 3127 3128 3129 3130 3131 3131 3132 3132 3133 3134 3136 3138 3139 3140 3140 3141 3142 3143 3145 3147 3149 3150 3151 3152 3154 3155 3157 3160 3161 3163 3164 3165 3166 3168 3169 3170 3171 3172 3173 3173 3174 3175 3176 3177 3178 3179 3180 3180 3181 3181 3182 3183 3184 3185 3186 3186 3187 3188 3188 3189 3189 3190 3191 3191 3192 3192 3192 3192 3193 3193 3194 3195 3196 3197 3197 3198 3198 3199 3199 3200 3201 3202
3125 3126 3127 3127 3128 3129 3129 3130 3131 3132 3132 3133 3134 3136 3137 3138 3139 3140 3140 3141 3142 3144 3146 3147 3149 3151 3153 3154 3156 3157 3158 3160 3161 3162 3164 3166 3167 3167 3169 3170 3171 3172 3172 3172 3173 3174 3175 3176 3177 3178 3179 3180 3180 3181 3181 3182 3183 3184 3185 3186 3186 3187 3188 3188 3188 3189 3190 3190 3191 3191 3191 3191 3191 3191 3192 3193 3194 3194 3195 3195 3196 3196 3196 3196 3197 3198
3126 3126 3127 3128 3128 3129 3129 3130 3131 3132 3133 3134 3135 3136 3137 3138 3139 3140 3141 3142 3143 3144 3146 3147 3149 3151 3153 3154 3155 3157 3158 3159 3160 3162 3164 3166 3167 3168 3168 3169 3170 3171 3172 3172 3172 3173 3174 3175 3175 3176 3177 3178 3179 3180 3180 3180 3181 3182 3183 3184 3185 3186 3186 3187 3187 3188 3188 3189 3190 3190 3190 3190 3189 3189 3190 3191 3191 3192 3192 3193 3193 3193 3193 3194 3194 3194
3126 3127 3127 3128 3129 3129 3130 3131 3131 3132 3133 3134 3135 3136 3137 3138 3138 3139 3140 3141 3143 3144 3145 3147 3148 3150 3152 3154 3155 3156 3157 3158 3160 3162 3164 3165 3166 3167 3168 3169 3169 3170 3171 3171 3171 3172 3172 3173 3173 3174 3175 3175 3177 3178 3179 3179 3180 3180 3181 3181 3182 3183 3184 3185 3186 3186 3187 3187 3188 3188 3188 3188 3188 3187 3187 3188 3189 3189 3189 3190 3190 3191 3191 3191 3192 3192
3127 3127 3128 3128 3129 3129 3130 3130 3131 3132 3133 3134 3134 3135 3136 3137 3138 3139 3140 3141 3142 3144 3145 3147 3148 3150 3152 3153 3154 3155 3156 3158 3160 3162 3163 3164 3165 3166 3167 3168 3168 3169 3169 3170 3170 3170 3170 3170 3171 3171 3172 3172 3173 3174 3176 3176 3177 3178 3178 3179 3180 3180 3181 3182 3183 3183 3184 3185 3185 3186 3186 3186 3186 3186 3185 3186 3186 3187 3187 3187 3187 3188 3189 3189 3189 3189
3127 3127 3128 3128 3128 3129 3130 3130 3131 3132 3133 3133 3134 3135 3135 3136 3137 3138 3139 3141 3142 3144 3145 3147 3148 3149 3151 3152 3153 3154 3155 3157 3159 3160 3162 3163 3164 3165 3166 3166 3166 3167 3167 3168 3168 3168 3168 3168 3168 3168 3169 3169 3170 3171 3172 3173 3174 3174 3175 3176 3177 3177 3178 3179 3180 3180 3181 3181 3182 3182 3183 3183 3183 3183 3183 3183 3184 3184 3184 3184 3185 3185 3186 3186 3186 3186
3126 3127 3127 3128 3128 3129 3129 3130 3130 3131 3132 3133 3133 3134 3135 3136 3137 3138 3139 3140 3142 3143 3145 3146 3147 3148 3150 3151 3152 3153 3154 3155 3157 3159 3160 3161 3162 3163 3163 3164 3164 3165 3165 3166 3166 3166 3167 3167 3166 3166 3167 3167 3167 3168 3169 3169 3170 3170 3171 3172 3173 3173 3174 3175 3176 3176 3177 3177 3177 3178 3178 3179 3179 3180 3180 3180 3180 3180 3180 3181 3181 3182 3182 3182 3182 3183
3126 3127 3127 3128 3128 3128 3129 3129 3130 3131 3132 3132 3133 3134 3135 3136 3137 3138 3139 3140 3141 3142 3144 3145 3146 3147 3149 3150 3151 3152 3152 3154 3155 3157 3158 3159 3160 3160 3161 3161 3162 3162 3163 3163 3164 3164 3165 3165 3165 3165 3165 3164 3165 3165 3165 3166 3166 3166 3167 3168 3169 3169 3170 3171 3171 3172 3173 3173 3174 3174 3174 3175 3175 3176 3176 3176 3176 3176 3177 3177 3177 3177 3177 3177 3177 3178
3126 3126 3127 3127 3127 3127 3128 3128 3129 3130 3131 3131 3132 3133 3134 3135 3136 3137 3138 3139 3140 3141 3143 3144 3145 3146 3147 3148 3149 3150 3151 3152 3153 3154 3155 3156 3157 3158 3158 3159 3159 3160 3160 3161 3161 3162 3162 3162 3163 3163 3162 3162 3162 3162 3162 3162 3162 3163 3163 3164 3165 3166 3166 3166 3167 3167 3168 3169 3169 3170 3170 3170 3171 3171 3172 3172 3172 3173 3173 3173 3173 3174 3173 3173 3172 3173
3126 3126 3126 3127 3127 3127 3127 3127 3128 3129 3129 3130 3131 3132 3133 3134 3135 3136 3136 3137 3139 3140 3141 3142 3143 3144 3145 3146 3147 3148 3149 3149 3150 3151 3152 3153 3154 3155 3155 3156 3157 3157 3158 3158 3158 3158 3158 3159 3159 3160 3160 3160 3159 3159 3159 3159 3159 3160 3160 3161 3162 3162 3162 3163 3163 3163 3164 3164 3165 3165 3166 3166 3167 3167 3168 3168 3169 3169 3170 3169 3169 3169 3169 3169 3169 3169
3125 3125 3126 3126 3127 3127 3127 3127 3127 3128 3128 3129 3130 3131 3131 3132 3133 3134 3135 3136 3137 3138 3139 3140 3141 3142 3143 3144 3145 3145 3146 3147 3148 3149 3150 3151 3152 3152 3152 3153 3153 3154 3155 3155 3156 3155 3155 3155 3156 3156 3157 3157 3157 3156 3156 3156 3157 3157 3157 3158 3159 3159 3160 3160 3160 3160 3160 3161 3161 3161 3162 3162 3162 3163 3163 3164 3165 3165 3166 3166 3165 3165 3165 3165 3165 3165